Regional Weather Roundup
Issued by NWS

Home | Current Version | Previous Version | Text Only | Print | Product List | Glossary Off
Versions: 1 2 3 4 5 6 7 8 9 10 11 12 13 14 15 16 17 18 19 20 21 22 23 24 25 26 27 28 29 30 31 32 33 34 35 36 37 38 39 40 41 42 43 44 45 46 47 48 49 50

000
ASUS43 KMPX 242210
RWRMN
WEATHER ROUNDUP FOR MINNESOTA
NATIONAL WEATHER SERVICE TWIN CITIES/CHANHASSEN MN
500 PM CDT FRI MAR 24 2017


NOTE: "FAIR" INDICATES FEW OR NO CLOUDS BELOW 12,000 FEET WITH NO
SIGNIFICANT WEATHER AND/OR OBSTRUCTIONS TO VISIBILITY. N/A MEANS
CURRENT SKY AND/OR WEATHER CONDITIONS ARE NOT AVAILABLE.

MNZ060>063-068>070-242300-
   Twin Cities Metro

CITY           SKY/WX    TMP DP  RH WIND       PRES   REMARKS
TWIN CITIES    CLOUDY    44  35  70 N14       30.08R
ST PAUL        CLOUDY    44  37  76 N13       30.10R
CRYSTAL        CLOUDY    43  33  68 N13       30.11R
BLAINE         CLOUDY    43  37  81 N9        30.11R
LAKEVILLE      CLOUDY    43  37  81 N14       30.06F
EDEN PRAIRIE   CLOUDY    45  35  68 N12       30.07R
SOUTH ST PAUL  CLOUDY    45  36  70 N13       30.07F
LAKE ELMO      CLOUDY    43  36  75 N7        30.10R
$$
MNZ001>005-007-008-013>017-022>024-027-028-242300-
   Northwest Minnesota

CITY           SKY/WX    TMP DP  RH WIND       PRES   REMARKS
BEMIDJI        PTSUNNY   40  29  65 NW5       30.15R
HALLOCK        CLOUDY    36  28  75 NW9       30.23S
ROSEAU         PTSUNNY   37  28  70 N6        30.21S
WARROAD        CLOUDY    36  27  69 NE7       30.21S
THIEF RVR FALL CLOUDY   N/A N/A N/A N12       30.20S
CROOKSTON      CLOUDY    36  32  87 N10       30.22S
FOSSTON        CLOUDY    39  32  75 NW9       30.17S
DETROIT LAKES  CLOUDY    41  32  70 N8        30.16R
MOORHEAD       PTSUNNY   37  34  87 N14       30.19S
PARK RAPIDS    CLOUDY    43  28  55 N8        30.13S
MAHNOMEN       FAIR      39  31  73 N13       30.17R
$$
MNZ006-009>011-018-025>026-242300-
   North Central Minnesota

CITY           SKY/WX    TMP DP  RH WIND       PRES   REMARKS
BAUDETTE       CLOUDY    39  26  59 N10       30.18R
FLAG ISLAND    CLOUDY    34  25  69 N7        30.21S WCI  28
INTL FALLS     CLOUDY    38  24  57 NE5       30.18R
WASKISH        CLOUDY    39  30  70 W3        30.17R
BIG FORK       CLOUDY    39  28  65 NE3       30.15R
LONGVILLE      CLOUDY    39  30  70 NE3       30.15R
GRAND RAPIDS   CLOUDY    38  31  76 N6        30.17R
CRANE LAKE     CLOUDY    36  27  69 NE5       30.18S
ORR            CLOUDY    37  27  65 CALM      30.14R
COOK           CLOUDY    37  30  75 CALM      30.16R
WALKER         CLOUDY    38  30  71 N6        30.15R
$$
MNZ012-019>021-037-242300-
   Northeast Minnesota

CITY           SKY/WX    TMP DP  RH WIND       PRES   REMARKS
DULUTH         CLOUDY    37  33  85 SE5       30.13R
ELY            CLOUDY    36  30  80 CALM      30.14R
HIBBING        CLOUDY    36  32  85 NE7       30.14R
EVELETH        CLOUDY    37  32  81 NE5       30.15R
DULUTH HARBOR  CLOUDY    36  34  93 CALM      30.17R
TWO HARBORS    CLOUDY    39  36  87 CALM      30.13R
SILVER BAY     CLOUDY    39  36  87 CALM      30.13R
GRAND MARAIS     N/A     38  33  82 E6        30.18R
G MARAIS ARPRT CLOUDY    32  28  86 NE5       30.14R WCI  27
$$
MNZ029>031-032-039>041-046>048-054>057-064-242300-
   West Central Minnesota

CITY           SKY/WX    TMP DP  RH WIND       PRES   REMARKS
FERGUS FALLS   CLOUDY    45  32  61 N7        30.17S
WHEATON        MOSUNNY   43  32  65 N9        30.18R
MORRIS         CLOUDY    45  36  70 SE5       30.13S
ALEXANDRIA     CLOUDY    43  34  70 NE7       30.12S
ELBOW LAKE     FAIR      44  34  69 N7        30.13S
WADENA         CLOUDY    43  32  65 NE8       30.13R
GLENWOOD       CLOUDY    43  34  70 N7        30.14S
APPLETON       PTSUNNY   45  36  70 N10       30.12F
BENSON         CLOUDY    46  30  53 NE10G18   30.14F
ORTONVILLE     CLOUDY    43  36  75 N7        30.14F
MADISON        CLOUDY    46  37  71 N13       30.13R
WILLMAR        CLOUDY    39  36  87 N13       30.14R
$$
MNZ033>034-036-042>043-049>051-058-059-242300-
   Central Minnesota

CITY           SKY/WX    TMP DP  RH WIND       PRES   REMARKS
ST CLOUD       CLOUDY    39  33  79 N12       30.13R
SAUK CENTRE    CLOUDY    40  32  73 NE10      30.12F
PAYNESVILLE      N/A     40  36  85 N12       30.13R
AITKIN         CLOUDY    43  30  61 N7        30.13R
PINE RIVER     CLOUDY    39  32  75 N7        30.17S
BRAINERD       CLOUDY    40  32  73 E9        30.14R
STAPLES        CLOUDY    43  30  61 E6        30.13S
LONG PRAIRIE   CLOUDY    41  32  70 N6        30.13S
LITTLE FALLS   CLOUDY    39  32  75 N3        30.14S
LITCHFIELD     CLOUDY    41  36  81 NE10      30.13R
BUFFALO        CLOUDY    40  34  80 N9        30.13R
MAPLE LAKE     CLOUDY    40  36  83 N10       30.14R
HUTCHINSON     CLOUDY    40  37  87 N9G18     30.12R
$$
MNZ037-044-045-052-053-242300-
   East Central Minnesota

CITY           SKY/WX    TMP DP  RH WIND       PRES   REMARKS
PRINCETON      CLOUDY    41  36  81 N8        30.13R
MORA           CLOUDY    37  32  81 N6        30.15R
CAMBRIDGE      CLOUDY    43  32  65 NE7       30.11R
RUSH CITY      CLOUDY    39  34  80 NE8       30.13R
MOOSE LAKE     CLOUDY    37  32  81 NE3       30.12S
HINCKLEY       CLOUDY    39  34  81 NE8       30.13R
CLOQUET        CLOUDY    39  32  75 NE5       30.13R
MCGREGOR       CLOUDY    39  32  75 NE8       30.14S
$$
MNZ071>073-080-081-089-090-097-098-242300-
   Southwest Minnesota

CITY           SKY/WX    TMP DP  RH WIND       PRES   REMARKS
MONTEVIDEO     CLOUDY    43  37  81 E9        30.14S
GRANITE FALLS  CLOUDY    41  36  83 N13G18    30.14R
CANBY          CLOUDY    42  38  85 CALM      30.14R
MARSHALL       CLOUDY    39  36  89 N16       30.11S
REDWOOD FALLS  CLOUDY    41  35  79 N12G21    30.09F
OLIVIA         CLOUDY    39  34  81 N14       30.11S
PIPESTONE      CLOUDY    37  34  87 NE16G23   30.06S HAZE
WINDOM         MOSUNNY   41  37  87 N16       30.06R
WORTHINGTON    CLOUDY    40  38  93 N20G25    30.05R FOG
JACKSON        CLOUDY    41  37  87 N17       30.04S
TRACY          CLOUDY    40  37  90 N15G21    30.10R FOG
SLAYTON        CLOUDY    37  36  93 N20G25    30.07R FOG
$$
MNZ065>067-074>077-082>085-091>093-242300-
   South Central Minnesota

CITY           SKY/WX    TMP DP  RH WIND       PRES   REMARKS
MANKATO        CLOUDY    44  38  79 N17       30.06R
NEW ULM        CLOUDY    43  36  75 N13G22    30.07S
ST JAMES       CLOUDY    43  39  87 N15G21    30.08S
FAIRMONT       CLOUDY    42  38  85 N13       30.06R
GLENCOE        CLOUDY    42  38  87 N10       30.09S
FARIBAULT      CLOUDY    45  39  81 N16G24    30.04F
OWATONNA       CLOUDY    43  36  75 N16       30.04R
WASECA         CLOUDY    41  37  87 N9        30.06R
ALBERT LEA     CLOUDY    39  39 100 N16       30.02R FOG
$$
MNZ078>079-086>088-094>096-242300-
   Southeast Minnesota

CITY           SKY/WX    TMP DP  RH WIND       PRES   REMARKS
ROCHESTER      CLOUDY    39  38  96 N14       30.03R
RED WING       CLOUDY    45  36  70 NE7       30.05F
STANTON        CLOUDY    45  38  79 N14       30.04F
DODGE CENTER   CLOUDY    37  37 100 N14       30.03R FOG
WINONA         CLOUDY    41  37  87 N3        30.06R
AUSTIN         CLOUDY    39  37  93 NE13G18   30.00F
PRESTON        CLOUDY    39  37  92 N15       30.01R
$$
ABBREVIATIONS USED IN REMARKS
   TC - TEMPERATURES IN CELSIUS
  WCI - WIND CHILL INDEX
   HX - HEAT INDEX
  VSB - VISIBILITY
$$



USA.gov is the U.S. government's official web portal to all federal, state and local government web resources and services.